Location: Mapua
(41.2500°S, 173.1000°E)
Time: 00:32:59
(UTC+12:00)

Hubble Space Telescope - Visible Passes

Search period start: 22 September 2018 00:00
Search period end: 02 October 2018 01:00
Orbit: 537 x 541 km, 28.5° (Epoch: 20 September)

Date Brightness Start Highest point End Pass type
(mag) Time Alt. Az. Time Alt. Az. Time Alt. Az.
25 Sep 3.4 04:18:23 10° NNE 04:18:23 10° NNE 04:18:39 10° NNE visible
26 Sep 3.3 04:08:32 11° NNE 04:08:32 11° NNE 04:09:05 10° NNE visible
27 Sep 3.4 03:58:41 11° NNE 03:58:41 11° NNE 03:58:58 10° NNE visible
27 Sep 3.0 05:35:32 10° NW 05:37:38 14° N 05:39:44 10° NNE visible
28 Sep 3.0 05:25:12 10° NW 05:27:07 13° N 05:29:01 10° NNE visible
29 Sep 3.0 05:15:00 10° NNW 05:16:35 12° N 05:18:10 10° NNE visible
30 Sep 3.1 06:05:03 10° NNW 06:06:03 11° NNW 06:07:03 10° N visible
